User: anonymous   Login
Location: Peebles
(55.6412°N, 3.1714°W)
Time: 07:55:32
(UTC+00:00)
Language:

IRIDIUM 146 - Orbit

View from above orbital plane
View from above orbital plane
View from above satellite
View from above satellite

Ground track
Ground track

The orbit data is extracted from the following two-line orbital elements,

1 43254U 18030F   22333.64189528  .00000221  00000-0  71730-4 0  9993
2 43254  86.3951 111.9076 0002223 100.0853 260.0593 14.34217398244448
Epoch (UTC): 29 November 2022 15:24:19
Eccentricity: 0.0002223
inclination: 86.3951°
perigee height: 776 km
apogee height: 779 km
right ascension of ascending node: 111.9076°
argument of perigee: 100.0853°
revolutions per day: 14.34217398
mean anomaly at epoch: 260.0593°
orbit number at epoch: 24444

The dashed part of the orbit path shows where the satellite is in the earth's shadow,  

DLR